ONEWEB-0054, 45158

Orbit data source: Space-Track

ONEWEB-0054, 45158 is a payload satellite owned by One Web (UK) in LEO that was launched on Thu, 06 Feb 2020 UTC via a SOYUZ-2-1B launch vehicle from the Tyuratam Missile And Space Complex (TTMTR). Payload-class satellites include a variety of spacecraft equipped with specific instruments for various scientific and technological missions. These include communications satellites like Starlink; space stations such as the ISS; scientific satellites like the Hubble; Earth observation satellites from companies like Planet Labs, Umbra, and HawkEye 360; GPS; miniature CubeSats for education and research; and military/defense satellites.

Loading next visibility...
Identifier
45158, 2020-008AD
Orbit
LEO
Last TLE update
22 hours ago
Origin
Manufacturer
One Web
Mission
Operational Commercial Communications
Bus & Motor
ARROW, Unknown motor
Mass
148 kg wet, ~140 kg dry
Launch date (UTC)
2020-02-06 (5 years ago)
Launch vehicle
SOYUZ-2-1B
Launch site
Tyuratam Missile And Space Complex (TTMTR)
Object type
Payload
Rocket body
Debris
Shape & HBR
Trap Box + 2 Pan, 5 m
Radar Cross Section
2.957 m², Large (>1 m²)

Expand to show TLE details & history

TLE from 22 hours ago
0 ONEWEB-0054
1 45158U 20008AD  25128.46432316 -.00000418  00000-0 -12336-2 0  9992
2 45158  87.8794 116.9603 0002081  88.7531 271.3835 13.10375820255020
Epoch: 2025-05-08T11:08Z
Definitive object data (Epoch: 2025-05-08T11:08:37.521Z)
Latitude
0.00003°
Longitude
83.26952°
Altitude
1,224.555 km
Speed
7.242 km/s
True Right ascension
07h 47m 50s
True Declination
0° 00' 00"
Sunlit
Object was in daylight at TLE epoch
Visualization TLE readout
Latitude
-39.8074°
Longitude
81.32907°
Altitude
1,237.848 km
Speed
7.234 km/s
Apparent Right ascension
06h 29m 48s
Apparent Declination
-41° 19' 03"
Sunlit
Object is in daylight
Visualization observer readout
Local Sidereal Time
17:05:11
Azimuth
258.138° W
Elevation
-73.921°
Doppler factor
1
Orbital elements
Apogee altitude
1,220.406 km
Perigee altitude
1,217.244 km
Semi-major axis
7,596.962 km
Eccentricity
0.0002081
Inclination
87.8794°
RAAN
116.9603°
Arg. of periapsis
88.7531°
True anomaly
271.35966°
Mean anomaly
271.3835°
Eccentric anomaly
271.37158°
Mean motion
3.27781 °/min
BSTAR
-0.0012336
Orbital period
109.83 mins
Loading maneuver chart data...
Loading SW <> Apogee altitude chart data...
Loading historical data...
Loading historical data...
Loading historical data...
Loading historical data...
Loading historical data...
Loading historical data...
Loading historical data...

ONEWEB-0054 Visibility forecast

Observer location: undefined°, undefined°

Span
Click to sort rows by Start time (UTC) header in descending order
Start Az.
Max El. time (UTC)
Max El. Az.
Max El.
End time (UTC)
End Az.
8 mins2025-05-09 09:45:57.171Z37.558° NE2025-05-09 09:49:57.171Z73.33° E17.387°2025-05-09 09:53:57.171Z109.318° ESE
13 mins2025-05-09 11:34:57.171Z355.392° N2025-05-09 11:40:57.171Z253.827° W44.25°2025-05-09 11:47:57.171Z187.853° SSW
4 mins2025-05-09 13:27:57.171Z302.99° NW2025-05-09 13:28:57.171Z294.675° NW11.875°2025-05-09 13:31:57.171Z270.061° WNW
8 mins2025-05-09 22:06:57.171Z109.903° ESE2025-05-09 22:10:57.171Z71.436° E19.548°2025-05-09 22:14:57.171Z35.063° NE
13 mins2025-05-09 23:53:57.171Z191.087° SSW2025-05-09 23:59:57.171Z275.244° WNW43.095°2025-05-10 00:06:57.171Z355.568° N
|